Big Bear City, CA

9:52 PM PDT on April 30, 2017 (GMT -0700)
Big Bear City

Weather History for KL35 - September, 2013

Change the Weather History Date:

Tuesday, September 10, 2013

  Actual Average (KBUO) Record (KBUO)
Temperature  
Mean Temperature 56 °F -  
Max Temperature 68 °F 88 °F 95 °F (1996)
Min Temperature 44 °F 58 °F 51 °F (2000)
Degree Days  
Heating Degree Days 9    
Growing Degree Days 6 (Base 50)    
Moisture  
Dew Point 42 °F    
Average Humidity 66    
Maximum Humidity 93    
Minimum Humidity 40    
Precipitation  
Precipitation 0.00 in - - ()
Sea Level Pressure  
Sea Level Pressure 30.16 in    
Wind  
Wind Speed 2 mph (WSW)    
Max Wind Speed 10 mph    
Max Gust Speed -    
Visibility 10 miles    
Events      
Averages and records for this station are not official NWS values.
T = Trace of Precipitation, MM = Missing Value Source: NWS Daily Summary

Daily Weather History Graph

Daily Weather History Graph

Search for Another Location

Airport or City:

Trip Planner

Search our weather history database for the weather conditions in past years. The results will help you decide how hot, cold, wet, or windy it might be!

Date:

Astronomy

Sep. 10, 2013 Rise Set
Actual Time 6:27 AM PDT 7:00 PM PDT
Civil Twilight 6:02 AM PDT 7:25 PM PDT
Nautical Twilight 5:32 AM PDT 7:55 PM PDT
Astronomical Twilight 5:02 AM PDT 8:25 PM PDT
Moon 11:42 AM PDT (9/10) 10:23 PM PDT (9/10)
Length of Visible Light 13h 23m
Length of Day
12h 33m
Waxing Crescent, 29% of the Moon is Illuminated
Sep 10
Waxing Crescent
Sep 12
First Quarter
Sep 19
Full
Sep 26
Last Quarter
Oct 4
New

Hourly Weather History & Observations

Time (PDT) Temp. Windchill Dew Point Humidity Pressure Visibility Wind Dir Wind Speed Gust Speed Precip Events Conditions
12:15 AM 46.4 °F - 42.8 °F 87% 30.11 in 10.0 mi Calm Calm - N/A   Clear
12:35 AM 46.4 °F - 42.8 °F 87% 30.12 in 10.0 mi Calm Calm - N/A   Clear
12:55 AM 48.2 °F - 42.8 °F 82% 30.11 in 10.0 mi Calm Calm - N/A   Clear
1:15 AM 44.6 °F - 42.8 °F 93% 30.11 in 10.0 mi Calm Calm - N/A   Clear
1:35 AM 44.6 °F - 42.8 °F 93% 30.11 in 10.0 mi Calm Calm - N/A   Clear
1:55 AM 44.6 °F - 42.8 °F 93% 30.11 in 10.0 mi Calm Calm - N/A   Clear
2:15 AM 44.6 °F - 42.8 °F 93% 30.11 in 10.0 mi Calm Calm - N/A   Clear
2:35 AM 46.4 °F 44.3 °F 42.8 °F 87% 30.11 in 10.0 mi WSW 4.6 mph - N/A   Clear
2:55 AM 50.0 °F - 42.8 °F 76% 30.11 in 10.0 mi SW 3.5 mph - N/A   Clear
3:15 AM 50.0 °F - 42.8 °F 76% 30.10 in 10.0 mi SW 3.5 mph - N/A   Mostly Cloudy
3:35 AM 50.0 °F - 42.8 °F 76% 30.10 in 10.0 mi SW 3.5 mph - N/A   Scattered Clouds
3:55 AM 48.2 °F - 42.8 °F 82% 30.10 in 10.0 mi South 3.5 mph - N/A   Clear
4:15 AM 46.4 °F - 42.8 °F 87% 30.10 in 10.0 mi Calm Calm - N/A   Clear
4:35 AM 46.4 °F - 42.8 °F 87% 30.11 in 10.0 mi Calm Calm - N/A   Clear
4:55 AM 46.4 °F - 42.8 °F 87% 30.11 in 10.0 mi Calm Calm - N/A   Scattered Clouds
5:15 AM 44.6 °F - 42.8 °F 93% 30.11 in 10.0 mi Calm Calm - N/A   Scattered Clouds
5:35 AM 44.6 °F - 42.8 °F 93% 30.11 in 10.0 mi Calm Calm - N/A   Clear
5:55 AM 44.6 °F - 42.8 °F 93% 30.12 in 10.0 mi Calm Calm - N/A   Scattered Clouds
6:15 AM 44.6 °F - 42.8 °F 93% 30.13 in 10.0 mi Calm Calm - N/A   Mostly Cloudy
6:35 AM 44.6 °F - 42.8 °F 93% 30.14 in 10.0 mi Calm Calm - N/A   Overcast
6:55 AM 46.4 °F - 42.8 °F 87% 30.14 in 10.0 mi Calm Calm - N/A   Scattered Clouds
7:15 AM 46.4 °F - 44.6 °F 93% 30.15 in 10.0 mi Calm Calm - N/A   Clear
7:35 AM 46.4 °F - 44.6 °F 93% 30.15 in 10.0 mi Calm Calm - N/A   Clear
7:55 AM 46.4 °F - 44.6 °F 93% 30.16 in 10.0 mi Calm Calm - N/A   Clear
8:15 AM 51.8 °F - 44.6 °F 76% 30.16 in 10.0 mi Calm Calm - N/A   Clear
8:35 AM 55.4 °F - 41.0 °F 58% 30.16 in 10.0 mi WSW 4.6 mph - N/A   Scattered Clouds
8:55 AM 59.0 °F - 41.0 °F 51% 30.16 in 10.0 mi WSW 5.8 mph - N/A   Scattered Clouds
9:15 AM 59.0 °F - 41.0 °F 51% 30.16 in 10.0 mi West 8.1 mph - N/A   Clear
9:35 AM 60.8 °F - 41.0 °F 48% 30.17 in 10.0 mi West 6.9 mph - N/A   Clear
9:55 AM 62.6 °F - 41.0 °F 45% 30.17 in 10.0 mi WSW 9.2 mph - N/A   Clear
10:15 AM 62.6 °F - 41.0 °F 45% 30.16 in 10.0 mi West 10.4 mph - N/A   Clear
10:35 AM 62.6 °F - 39.2 °F 42% 30.17 in 10.0 mi West 9.2 mph - N/A   Clear
10:55 AM 64.4 °F - 39.2 °F 40% 30.17 in 10.0 mi WSW 5.8 mph - N/A   Clear
11:15 AM 64.4 °F - 39.2 °F 40% 30.17 in 10.0 mi West 8.1 mph - N/A   Clear
11:35 AM 64.4 °F - 41.0 °F 42% 30.16 in 10.0 mi West 8.1 mph - N/A   Clear
11:55 AM 64.4 °F - 41.0 °F 42% 30.16 in 10.0 mi West 8.1 mph - N/A   Clear
12:15 PM 66.2 °F - 42.8 °F 43% 30.16 in 10.0 mi West 8.1 mph - N/A   Clear
12:35 PM 66.2 °F - 42.8 °F 43% 30.16 in 10.0 mi SW 6.9 mph - N/A   Scattered Clouds
12:55 PM 66.2 °F - 41.0 °F 40% 30.17 in 10.0 mi WNW 6.9 mph - N/A   Mostly Cloudy
1:15 PM 66.2 °F - 44.6 °F 46% 30.16 in 10.0 mi NW 6.9 mph - N/A   Scattered Clouds
1:35 PM 64.4 °F - 44.6 °F 49% 30.17 in 10.0 mi NNE 4.6 mph - N/A   Mostly Cloudy
1:55 PM 64.4 °F - 44.6 °F 49% 30.16 in 10.0 mi East 8.1 mph - N/A   Overcast
2:15 PM 64.4 °F - 44.6 °F 49% 30.16 in 10.0 mi NNE 4.6 mph - N/A   Overcast
2:35 PM 64.4 °F - 44.6 °F 49% 30.16 in 10.0 mi NNE 3.5 mph - N/A   Mostly Cloudy
2:55 PM 66.2 °F - 44.6 °F 46% 30.15 in 10.0 mi NE 6.9 mph - N/A   Scattered Clouds
3:15 PM 66.2 °F - 42.8 °F 43% 30.16 in 10.0 mi West 3.5 mph - N/A   Overcast
3:35 PM 64.4 °F - 42.8 °F 45% 30.15 in 10.0 mi West 8.1 mph - N/A   Mostly Cloudy
3:55 PM 66.2 °F - 42.8 °F 43% 30.15 in 10.0 mi West 9.2 mph - N/A   Mostly Cloudy
4:15 PM 68.0 °F - 42.8 °F 40% 30.15 in 10.0 mi SW 6.9 mph - N/A   Scattered Clouds
4:35 PM 66.2 °F - 42.8 °F 43% 30.14 in 10.0 mi WSW 6.9 mph - N/A   Scattered Clouds
4:55 PM 64.4 °F - 42.8 °F 45% 30.15 in 10.0 mi SW 4.6 mph - N/A   Clear
5:15 PM 64.4 °F - 42.8 °F 45% 30.15 in 10.0 mi SSW 5.8 mph - N/A   Clear
5:35 PM 62.6 °F - 42.8 °F 48% 30.15 in 10.0 mi WSW 4.6 mph - N/A   Clear
5:55 PM 62.6 °F - 42.8 °F 48% 30.16 in 10.0 mi SW 5.8 mph - N/A   Clear
6:15 PM 60.8 °F - 41.0 °F 48% 30.16 in 10.0 mi WSW 5.8 mph - N/A   Clear
6:35 PM 60.8 °F - 41.0 °F 48% 30.17 in 10.0 mi WSW 6.9 mph - N/A   Clear
6:55 PM 59.0 °F - 41.0 °F 51% 30.17 in 10.0 mi WSW 5.8 mph - N/A   Clear
7:15 PM 57.2 °F - 41.0 °F 55% 30.18 in 10.0 mi WSW 4.6 mph - N/A   Clear
7:35 PM 55.4 °F - 41.0 °F 58% 30.18 in 10.0 mi Calm Calm - N/A   Clear
7:55 PM 55.4 °F - 41.0 °F 58% 30.19 in 10.0 mi Calm Calm - N/A   Clear
8:15 PM 53.6 °F - 41.0 °F 62% 30.19 in 10.0 mi Calm Calm - N/A   Clear
8:35 PM 51.8 °F - 41.0 °F 67% 30.20 in 10.0 mi Calm Calm - N/A   Clear
8:55 PM 51.8 °F - 42.8 °F 71% 30.20 in 10.0 mi Calm Calm - N/A   Clear
9:15 PM 51.8 °F - 42.8 °F 71% 30.21 in 10.0 mi South 3.5 mph - N/A   Clear
9:35 PM 50.0 °F - 42.8 °F 76% 30.21 in 10.0 mi Calm Calm - N/A   Clear
9:55 PM 50.0 °F - 42.8 °F 76% 30.20 in 10.0 mi Calm Calm - N/A   Clear
10:15 PM 48.2 °F - 42.8 °F 82% 30.21 in 10.0 mi Calm Calm - N/A   Clear
10:35 PM 46.4 °F - 41.0 °F 81% 30.21 in 10.0 mi Calm Calm - N/A   Clear
10:55 PM 46.4 °F - 41.0 °F 81% 30.21 in 10.0 mi Calm Calm - N/A   Clear
11:15 PM 46.4 °F - 41.0 °F 81% 30.22 in 10.0 mi Calm Calm - N/A   Clear
11:35 PM 46.4 °F - 41.0 °F 81% 30.22 in 10.0 mi Calm Calm - N/A   Clear
11:55 PM 44.6 °F - 41.0 °F 87% 30.22 in 10.0 mi Calm Calm - N/A   Clear